Location: Ailingen
(47.6833°N, 9.5000°E)
Time: 13:29:52
(UTC+00:00)

MOS 1 Rocket - Pass Details

Date: 18 November 2025
Orbit: 610 x 813 km, 97.4° (Epoch: 06 December)

Event Time Altitude Azimuth Distance (km) Brightness Sun altitude
Rises 17:38:25 0° 179° (S) 2,873 6.6 -19.4°
Reaches altitude 10° 17:40:36 10° 184° (S) 1,986 5.8 -19.7°
Maximum altitude 17:44:49 52° 261° (W) 792 3.9 -20.4°
Drops below altitude 10° 17:49:15 10° 339° (NNW) 2,088 5.9 -21.2°
Sets 17:51:36 0° 344° (NNW) 3,037 6.7 -21.6°
